Mojave, CA

2:07 PM PST on December 05, 2019 (GMT -0800)
Mojave

Weather History for KMHV - October, 2019

Change the Weather History Date:

Monday, October 7, 2019

  Actual Average Record
Temperature  
Mean Temperature 68 °F -  
Max Temperature 86 °F 82 °F 96 °F (1964)
Min Temperature 51 °F 52 °F 40 °F (1979)
Cooling Degree Days 4    
Growing Degree Days 18 (Base 50)    
Moisture  
Dew Point 18 °F    
Average Humidity 15    
Maximum Humidity 25    
Minimum Humidity 7    
Precipitation  
Precipitation 0.00 in - - ()
Sea Level Pressure  
Sea Level Pressure 30.04 in    
Wind  
Wind Speed 7 mph (WNW)    
Max Wind Speed 16 mph    
Max Gust Speed 21 mph    
Visibility 10 miles    
Events      
Averages and records for this station are not official NWS values.
T = Trace of Precipitation, MM = Missing Value Source: NWS Daily Summary

Daily Weather History Graph

Daily Weather History Graph

Search for Another Location

Airport or City:

Astronomy

Oct. 07, 2019 Rise Set
Actual Time 6:51 AM PDT 6:28 PM PDT
Civil Twilight 6:26 AM PDT 6:53 PM PDT
Nautical Twilight 5:57 AM PDT 7:22 PM PDT
Astronomical Twilight 5:27 AM PDT 7:52 PM PDT
Moon 3:37 PM PDT (10/7) 1:05 AM PDT (10/7)
Length of Visible Light 12h 27m
Length of Day
11h 36m
Waxing Gibbous, 70% of the Moon is Illuminated
Oct 7
Waxing Gibbous
Oct 13
Full
Oct 21
Last Quarter
Oct 27
New
Nov 4
First Quarter

Hourly Weather History & Observations

Time (PDT) Temp. Dew Point Humidity Pressure Visibility Wind Dir Wind Speed Gust Speed Precip Events Conditions
12:00 AM 60.8 °F 14.0 °F 16% 30.11 in 10.0 mi NNW 10.4 mph - N/A   Mostly Cloudy
12:20 AM 60.8 °F 14.0 °F 16% 30.11 in 10.0 mi NNW 9.2 mph - N/A   Mostly Cloudy
12:40 AM 59.0 °F 12.2 °F 16% 30.11 in 10.0 mi NNW 10.4 mph - N/A   Overcast
1:00 AM 59.0 °F 12.2 °F 16% 30.11 in 10.0 mi NNW 9.2 mph - N/A   Overcast
1:20 AM 59.0 °F 12.2 °F 16% 30.11 in 10.0 mi NNW 10.4 mph - N/A   Overcast
1:40 AM 59.0 °F 12.2 °F 16% 30.11 in 10.0 mi NNW 9.2 mph - N/A   Overcast
2:00 AM 59.0 °F 12.2 °F 16% 30.11 in 10.0 mi NNW 10.4 mph - N/A   Overcast
2:20 AM 57.2 °F 12.2 °F 17% 30.11 in 10.0 mi NNW 9.2 mph - N/A   Overcast
2:40 AM 57.2 °F 12.2 °F 17% 30.10 in 10.0 mi NNW 9.2 mph - N/A   Overcast
3:00 AM 57.2 °F 12.2 °F 17% 30.09 in 10.0 mi NNW 9.2 mph - N/A   Mostly Cloudy
3:20 AM 57.2 °F 12.2 °F 17% 30.09 in 10.0 mi NNW 9.2 mph - N/A   Mostly Cloudy
3:40 AM 55.4 °F 12.2 °F 18% 30.08 in 10.0 mi NNW 10.4 mph - N/A   Mostly Cloudy
4:00 AM 55.4 °F 12.2 °F 18% 30.08 in 10.0 mi NNW 9.2 mph - N/A   Overcast
4:20 AM 55.4 °F 12.2 °F 18% 30.08 in 10.0 mi NNW 9.2 mph - N/A   Overcast
4:40 AM 55.4 °F 12.2 °F 18% 30.09 in 10.0 mi NNW 9.2 mph - N/A   Mostly Cloudy
5:00 AM 55.4 °F 12.2 °F 18% 30.09 in 10.0 mi NNW 10.4 mph - N/A   Overcast
5:20 AM 55.4 °F 12.2 °F 18% 30.09 in 10.0 mi NW 8.1 mph - N/A   Overcast
5:40 AM 53.6 °F 12.2 °F 19% 30.10 in 10.0 mi NW 6.9 mph - N/A   Mostly Cloudy
6:00 AM 53.6 °F 12.2 °F 19% 30.10 in 10.0 mi NNW 5.8 mph - N/A   Mostly Cloudy
6:20 AM 55.4 °F 12.2 °F 18% 30.10 in 10.0 mi North 3.5 mph - N/A   Mostly Cloudy
6:40 AM 53.6 °F 12.2 °F 19% 30.10 in 7.0 mi NW 3.5 mph - N/A   Partly Cloudy
7:00 AM 51.8 °F 12.2 °F 21% 30.11 in 7.0 mi Calm Calm - N/A   Clear
7:20 AM 51.8 °F 12.2 °F 21% 30.11 in 8.0 mi Calm Calm - N/A   Clear
7:40 AM 55.4 °F 14.0 °F 20% 30.11 in 7.0 mi NW 3.5 mph - N/A   Clear
8:00 AM 64.4 °F 14.0 °F 14% 30.11 in 9.0 mi Calm Calm - N/A   Clear
8:20 AM 64.4 °F 15.8 °F 15% 30.12 in 10.0 mi Calm Calm - N/A   Clear
8:40 AM 66.2 °F 14.0 °F 13% 30.12 in 10.0 mi Calm Calm - N/A   Clear
9:00 AM 68.0 °F 14.0 °F 12% 30.12 in 10.0 mi Calm Calm - N/A   Clear
9:20 AM 69.8 °F 14.0 °F 12% 30.12 in 10.0 mi Calm Calm - N/A   Clear
9:40 AM 71.6 °F 15.8 °F 12% 30.11 in 10.0 mi Calm Calm - N/A   Clear
10:00 AM 73.4 °F 15.8 °F 11% 30.11 in 10.0 mi Calm Calm - N/A   Clear
10:20 AM 75.2 °F 15.8 °F 11% 30.11 in 10.0 mi Calm Calm - N/A   Clear
10:40 AM 75.2 °F 17.6 °F 11% 30.11 in 10.0 mi SE 4.6 mph - N/A   Clear
11:00 AM 77.0 °F 17.6 °F 11% 30.11 in 10.0 mi SE 5.8 mph - N/A   Clear
11:20 AM 78.8 °F 17.6 °F 10% 30.10 in 10.0 mi Calm Calm - N/A   Clear
11:40 AM 78.8 °F 15.8 °F 9% 30.09 in 10.0 mi Variable 4.6 mph - N/A   Clear
12:00 PM 80.6 °F 15.8 °F 9% 30.09 in 10.0 mi Calm Calm - N/A   Clear
12:20 PM 80.6 °F 15.8 °F 9% 30.08 in 10.0 mi SSE 5.8 mph - N/A   Clear
12:40 PM 80.6 °F 15.8 °F 9% 30.07 in 10.0 mi Variable 3.5 mph - N/A   Clear
1:00 PM 82.4 °F 15.8 °F 8% 30.05 in 10.0 mi SSW 6.9 mph - N/A   Clear
1:20 PM 82.4 °F 15.8 °F 8% 30.04 in 10.0 mi Variable 3.5 mph - N/A   Clear
1:40 PM 82.4 °F 15.8 °F 8% 30.03 in 10.0 mi Calm Calm - N/A   Clear
2:00 PM 84.2 °F 15.8 °F 8% 30.02 in 10.0 mi Calm Calm - N/A   Clear
2:20 PM 84.2 °F 15.8 °F 8% 30.01 in 10.0 mi Variable 4.6 mph - N/A   Clear
2:40 PM 84.2 °F 15.8 °F 8% 30.00 in 10.0 mi Variable 5.8 mph - N/A   Clear
3:00 PM 84.2 °F 17.6 °F 8% 29.99 in 10.0 mi SE 4.6 mph - N/A   Clear
3:20 PM 86.0 °F 15.8 °F 7% 29.99 in 10.0 mi South 3.5 mph 12.7 mph N/A   Clear
3:40 PM 86.0 °F 17.6 °F 8% 29.98 in 10.0 mi SSE 9.2 mph - N/A   Clear
4:00 PM 86.0 °F 15.8 °F 7% 29.98 in 10.0 mi Variable 6.9 mph 12.7 mph N/A   Clear
4:20 PM 86.0 °F 15.8 °F 7% 29.97 in 10.0 mi SSW 6.9 mph - N/A   Clear
4:40 PM 86.0 °F 17.6 °F 8% 29.96 in 10.0 mi SSE 5.8 mph - N/A   Clear
5:00 PM 86.0 °F 17.6 °F 8% 29.96 in 10.0 mi South 8.1 mph - N/A   Clear
5:20 PM 86.0 °F 15.8 °F 7% 29.96 in 10.0 mi SSW 8.1 mph - N/A   Clear
5:40 PM 84.2 °F 23.0 °F 11% 29.96 in 10.0 mi West 11.5 mph - N/A   Clear
6:00 PM 82.4 °F 24.8 °F 12% 29.96 in 10.0 mi WNW 16.1 mph - N/A   Clear
6:20 PM 80.6 °F 24.8 °F 13% 29.95 in 10.0 mi WNW 11.5 mph 20.7 mph N/A   Clear
6:40 PM 78.8 °F 26.6 °F 15% 29.95 in 10.0 mi WNW 10.4 mph 19.6 mph N/A   Clear
7:00 PM 77.0 °F 28.4 °F 17% 29.96 in 10.0 mi WNW 10.4 mph - N/A   Clear
7:20 PM 75.2 °F 30.2 °F 19% 29.96 in 10.0 mi West 10.4 mph - N/A   Clear
7:40 PM 75.2 °F 30.2 °F 19% 29.96 in 10.0 mi West 9.2 mph - N/A   Clear
8:00 PM 73.4 °F 30.2 °F 20% 29.96 in 10.0 mi WNW 10.4 mph - N/A   Clear
8:20 PM 73.4 °F 32.0 °F 22% 29.96 in 10.0 mi WNW 10.4 mph - N/A   Clear
8:40 PM 73.4 °F 32.0 °F 22% 29.97 in 10.0 mi West 9.2 mph - N/A   Clear
9:00 PM 73.4 °F 32.0 °F 22% 29.97 in 10.0 mi West 10.4 mph - N/A   Clear
9:20 PM 71.6 °F 33.8 °F 25% 29.97 in 10.0 mi WSW 9.2 mph - N/A   Clear
9:40 PM 71.6 °F 32.0 °F 23% 29.96 in 10.0 mi WNW 10.4 mph - N/A   Clear
10:00 PM 73.4 °F 32.0 °F 22% 29.96 in 10.0 mi WNW 10.4 mph - N/A   Clear
10:20 PM 71.6 °F 32.0 °F 23% 29.96 in 10.0 mi West 15.0 mph - N/A   Clear
10:40 PM 73.4 °F 30.2 °F 20% 29.96 in 10.0 mi West 11.5 mph - N/A   Clear
11:00 PM 73.4 °F 30.2 °F 20% 29.96 in 10.0 mi WNW 10.4 mph 18.4 mph N/A   Clear
11:20 PM 71.6 °F 28.4 °F 20% 29.96 in 10.0 mi West 6.9 mph 13.8 mph N/A   Clear
11:40 PM 71.6 °F 28.4 °F 20% 29.96 in 10.0 mi WSW 5.8 mph - N/A   Clear